#timestamp,LO_Frequency,Hit,StdDev 
1677877215.1,286047004.2,N
1677877216.0,286047004.2,N
1677877235.8,286047003.5,N
1677877255.7,286047001.4,N
1677877275.5,286047004.3,N
1677877295.3,286047001.5,N
1677877315.2,286046999.8,N
1677877335.0,286047002.6,N
1677877335.9,286047002.6,N
1677877355.7,286047003.4,N
1677877375.6,286047005.9,N
1677877395.4,286047005.3,N
1677877415.7,286047007.1,Y
1677877435.6,286047000.4,P
1677877455.4,286046999.1,N
1677877475.2,286046996.9,N
1677877495.1,286046994.3,N
1677877496.0,286046994.3,N
1677877515.8,286046995.6,N
1677877535.7,286046998.3,N
1677877555.5,286047003.7,N
1677877575.3,286047004.4,N
1677877595.2,286047003.6,N
1677877615.0,286047006.5,N
1677877615.9,286047006.5,N
1677877635.7,286047009.8,N
1677877655.6,286047012.5,N
1677877675.4,286047012.6,N
1677877695.3,286047016.5,N
1677877715.1,286047016.4,N
1677877716.0,286047016.4,N
1677877735.8,286047017.8,N
1677877755.7,286047016.6,N
1677877775.5,286047019.8,N
1677877795.3,286047011.7,N
1677877815.2,286047007.5,N
1677877835.0,286047006.7,N
1677877835.9,286047006.7,N
1677877855.8,286047008.6,N
1677877875.6,286047012.3,N
1677877895.4,286047008.0,N
1677877915.3,286047012.0,N
1677877935.1,286047015.3,N
1677877955.8,286047016.6,N
1677877975.7,286047014.8,N
1677877995.5,286047016.5,N
1677878015.4,286047016.3,N
1677878035.2,286047016.5,N
1677878055.0,286047017.9,Y
1677878055.9,286047017.9,P
1677878075.8,286047007.8,N
1677878095.6,286047010.7,N
1677878115.4,286047007.1,N
1677878135.3,286046998.7,N
1677878155.1,286047000.8,N
1677878175.9,286047003.9,N
1677878195.7,286047005.8,N
1677878215.5,286047001.7,N
1677878235.4,286047002.3,N
1677878255.2,286047003.1,N
1677878275.0,286047005.4,N
1677878275.9,286047005.4,N
1677878295.8,286047010.3,N
1677878315.6,286047012.0,N
1677878335.5,286047011.8,N
1677878355.3,286047010.5,N
1677878375.1,286047011.4,N
1677878395.9,286047008.3,N
1677878415.7,286047003.9,N
1677878435.5,286047003.6,N
1677878455.4,286047003.0,N
1677878475.2,286047009.0,N
1677878495.1,286047008.8,N
1677878496.0,286047008.8,N
1677878515.8,286047009.6,N
1677878535.6,286047007.3,N
1677878555.5,286047002.1,N
1677878575.3,286047005.1,N
1677878595.1,286047006.5,N
1677878615.9,286047002.0,N
1677878635.7,286047003.1,N
1677878655.6,286047002.1,N
1677878675.4,286047004.0,N
1677878695.2,286047003.8,N
1677878715.1,286047002.0,N
1677878716.0,286047002.0,N
1677878735.8,286046999.7,N
1677878755.6,286046996.3,N
1677878775.5,286046996.6,N
1677878795.3,286046995.3,N
1677878815.2,286046999.4,N
1677878835.9,286046990.4,N
1677878855.7,286046991.6,N
1677878875.6,286046989.0,N
1677878895.4,286046995.0,N
1677878915.2,286047000.3,N
1677878935.1,286047000.1,N
1677878936.0,286047000.1,N
1677878955.8,286047001.7,N
1677878975.7,286047007.6,N
1677878995.5,286047008.2,N
1677879015.3,286047018.8,Y
1677879035.2,286047019.3,P
1677879055.0,286047018.0,N
1677879055.9,286047018.0,N
1677879075.7,286047020.3,N
1677879095.6,286047019.2,N
1677879115.4,286047026.3,Y
1677879135.3,286047010.8,P
1677879155.1,286047012.3,P
1677879156.0,286047012.3,P
1677879175.8,286047014.7,Y
1677879195.7,286047001.4,P
1677879215.5,286047000.9,N
1677879235.4,286046997.7,N
1677879255.2,286046996.7,N
1677879275.0,286046996.7,N
1677879275.9,286046996.7,N
1677879295.8,286046996.7,N
1677879315.6,286047002.6,N
1677879335.4,286046999.7,N
1677879355.3,286047000.5,N
1677879375.1,286047001.6,N
1677879395.9,286047006.0,N
1677879415.7,286047001.9,N
1677879435.5,286046998.1,N
1677879455.4,286046995.5,N
1677879475.2,286047004.6,N
1677879495.0,286047005.4,N
1677879495.9,286047005.4,N
1677879515.8,286047002.2,N
1677879535.6,286047000.5,N
1677879555.5,286047004.3,N
1677879575.3,286047001.7,N
1677879595.1,286047001.7,N
1677879615.9,286047007.1,N
1677879635.7,286047010.7,N
1677879655.5,286047009.1,N
1677879675.4,286047001.4,N
1677879695.2,286047000.3,N
1677879715.1,286047005.1,N
1677879716.0,286047005.1,N
1677879735.8,286047006.2,N
1677879755.6,286047007.8,N
1677879775.5,286047009.2,N
1677879795.3,286047008.6,N
1677879815.1,286047005.5,N
1677879835.9,286047009.1,N
1677879855.7,286047003.7,N
1677879875.6,286047009.0,N
1677879895.4,286047007.8,N
1677879915.2,286047004.9,N
1677879935.1,286047004.6,N
1677879936.0,286047004.6,N
1677879955.8,286047004.2,N
1677879975.6,286047001.5,N
1677879995.5,286047007.0,N
1677880015.3,286047008.4,N
1677880035.2,286047008.7,Y
1677880055.9,286047002.4,P
1677880075.7,286046996.5,N
1677880095.6,286046996.8,N
1677880115.4,286046991.9,N
1677880135.2,286046992.5,N
1677880155.1,286046989.6,N
1677880156.0,286046989.6,N
1677880175.8,286046988.1,N
1677880195.7,286046988.2,N
1677880215.5,286046981.8,Y
1677880235.3,286046985.8,P
1677880255.2,286046987.4,P
1677880275.0,286046994.2,N
1677880275.9,286046994.2,N
1677880295.8,286046995.3,N
1677880315.6,286047001.3,N
1677880335.4,286047001.6,N
1677880355.3,286047000.1,N
1677880375.1,286047005.2,N
1677880395.9,286047002.9,N
1677880415.7,286047005.9,N
1677880435.5,286047003.1,N
1677880455.4,286047001.7,N
1677880475.2,286047000.0,N
1677880495.0,286047002.3,N
1677880495.9,286047002.3,N
1677880515.8,286046999.8,N
1677880535.6,286047000.2,N
1677880555.5,286047003.6,N
1677880575.3,286047003.3,N
1677880595.1,286047002.0,N
1677880615.9,286047004.1,N
1677880635.7,286047005.6,N
1677880655.5,286047008.0,N
1677880675.4,286047013.3,N
1677880695.2,286047011.8,N
1677880715.1,286047015.3,N
1677880716.0,286047015.3,N
1677880735.8,286047021.9,Y
1677880755.6,286047020.8,P
1677880775.5,286047027.0,N
1677880795.3,286047031.5,N
